User: anonymous   Login
Location: Jetmore Oil Field
(38.1181°N, 99.9337°W)
Time: 15:47:09
(UTC+00:00)
Language:

STARLINK-2719 - Orbit

View from above orbital plane
View from above orbital plane
View from above satellite
View from above satellite

Ground track
Ground track

The orbit data is extracted from the following two-line orbital elements,

1 48677C 21044AR  21265.50052692 -.00015736  00000-0 -10545-2 0  2655
2 48677  53.0543 225.3153 0001735  60.5219 187.6691 15.06406045    14
Epoch (UTC): 22 September 2021 12:00:45
Eccentricity: 0.0001735
inclination: 53.0543°
perigee height: 546 km
apogee height: 548 km
right ascension of ascending node: 225.3153°
argument of perigee: 60.5219°
revolutions per day: 15.06406045
mean anomaly at epoch: 187.6691°
orbit number at epoch: 1

The dashed part of the orbit path shows where the satellite is in the earth's shadow,  

DLR